Вернуться в каталог

PSLV DEB

АктивенPO
NORAD 35351·DEBRIS·🇮🇳 India

Запущен Oct 22, 2001 с Satish Dhawan Space Centre

Loading…

Ближайшие Пролёты (ближайшие 24 часа)

TLE

СвежийSource: Space-Track

Эпоха: Sep 13, 2026, 16:01 UTC

1 35351U 01049QK  26256.66782157  .00003609  00000-0  65502-3 0  9993
2 35351  98.7921 334.6047 0004512  88.5987 271.5732 14.66905956697559

Отслеживайте PSLV DEB в реальном времени с AllMySat

Download on the App Store